Location: ???? ?????
(30.0052°N, 31.2891°E)
Time: 11:02:52
(UTC+00:00)

ADEOS II - Pass Details

Date: 26 May 2022
Orbit: 799 x 800 km, 98.6° (Epoch: 06 July)

Event Time Altitude Azimuth Distance (km) Brightness Sun altitude
Rises 00:01:02 0° 10° (N) 3,308 6.2 -30.2°
Reaches altitude 10° 00:03:23 10° 9° (N) 2,375 5.3 -29.9°
Enters shadow 00:07:47 62° 347° (NNW) 896 2.3 -29.3°
